Home   Weather   Greenwich Borough   Past weeks
Flag for United Kingdom

Past Weather in Greenwich Borough, England, United Kingdom — Yesterday and Last 2 Weeks

Now
61 °F

Scattered clouds.


Feels Like: 61 °F
Forecast: 66 / 53 °F
Wind: 3 mph from North

Location: Biggin Hill Airport

Current Time: May 19, 2019 at 5:41:46 pm

Latest Report: May 19, 2019 at 4:50 pm


Visibility: N/A

Pressure: 29.83 "Hg

Humidity: 63%

Dew Point: 48 °F

Location of Greenwich BoroughLocation

Past Weather in Greenwich Borough — Graph

°F

Greenwich Borough Temperature Yesterday

Maximum temperature yesterday: 63 °F (at 6:20 pm)
Minimum temperature yesterday: 54 °F (at 9:50 pm)
Average temperature yesterday: 58 °F

High & Low Weather Summary for the Past Weeks

 TemperatureHumidityPressure
High63 °F (May 15, 2:20 pm)100% (May 8, 6:20 am)30.72 "Hg (May 8, 6:20 am)
Low32 °F (May 10, 6:20 am)36% (May 13, 2:50 pm)29.27 "Hg (May 8, 1:50 pm)
Average52 °F70%30.05 "Hg
* Reported May 4 4:20 pm — May 19 4:20 pm, Greenwich Borough. Weather by CustomWeather, © 2019

Note: Actual official high and low records may vary slightly from our data, if they occured in-between our weather recording intervals... More about our weather records

Advertising

Greenwich Borough Weather History for the Previous 24 Hours

Scroll right to see more
 ConditionsComfort  
Time TempWeatherWind HumidityBarometerVisibility
4:20 pm
Sun, May 19
59 °FScattered clouds.7 mph68%29.83 "HgN/A
3:50 pm61 °FScattered clouds.8 mph63%29.83 "HgN/A
2:50 pm63 °FScattered clouds.7 mph64%29.83 "HgN/A
2:20 pm61 °FScattered clouds.6 mph68%29.83 "HgN/A
1:50 pm61 °FScattered clouds.9 mph63%29.83 "HgN/A
1:20 pm59 °FScattered clouds.7 mph72%29.83 "HgN/A
12:50 pm61 °FPartly sunny.7 mph68%29.83 "HgN/A
12:20 pm59 °FPartly sunny.8 mph72%29.83 "HgN/A
11:50 am57 °FPartly sunny.7 mph77%29.83 "HgN/A
11:20 am57 °FScattered clouds.8 mph82%29.83 "Hg3 mi
10:50 am57 °FHaze.7 mph77%29.83 "Hg2 mi
10:20 am57 °FHaze.8 mph77%29.83 "Hg2 mi
9:50 am57 °FHaze.7 mph77%29.83 "Hg2 mi
9:20 am55 °FHaze.6 mph77%29.80 "Hg2 mi
9:50 pm
Sat, May 18
54 °FPassing clouds.3 mph88%29.77 "HgN/A
9:20 pm55 °FPassing clouds.3 mph82%29.77 "HgN/A
8:50 pm55 °FPassing clouds.5 mph82%29.77 "HgN/A
8:20 pm57 °FPassing clouds.6 mph72%29.77 "HgN/A
7:50 pm59 °FPassing clouds.8 mph68%29.77 "HgN/A
7:20 pm59 °FScattered showers. Scattered clouds.3 mph63%29.74 "HgN/A
6:50 pm63 °FSunny.2 mph52%29.74 "Hg10 mi
6:20 pm63 °FSunny.2 mph56%29.74 "Hg10 mi
5:50 pm61 °FSunny.5 mph63%29.74 "Hg10 mi
5:20 pm59 °FPassing clouds.5 mph63%29.74 "HgN/A
Weather by CustomWeather, © 2019

See weather overview